Columbus, IN

9:18 PM EST on December 07, 2016 (GMT -0500)
Himsel Army Airfld, Nineveh,

Weather History for K1II - August, 2014

Change the Weather History Date:

Friday, August 22, 2014

  Actual Average (KGEZ) Record (KGEZ)
Temperature  
Mean Temperature 78 °F 72 °F  
Max Temperature 86 °F 83 °F 95 °F (2007)
Min Temperature 71 °F 61 °F 52 °F (2012)
Degree Days  
Heating Degree Days 0 0  
Month to date heating degree days 0  
Since 1 June heating degree days 16  
Since 1 July heating degree days 1  
Cooling Degree Days 14 7  
Month to date cooling degree days 172  
Year to date cooling degree days 745  
Since 1 June cooling degree days 664  
Growing Degree Days 28 (Base 50)    
Moisture  
Dew Point 71 °F    
Average Humidity 81    
Maximum Humidity 94    
Minimum Humidity 58    
Precipitation  
Precipitation 0.00 in 0.12 in 0.49 in (2013)
Month to date precipitation 2.20  
Year to date precipitation 29.09  
Sea Level Pressure  
Sea Level Pressure 29.99 in    
Wind  
Wind Speed 3 mph (WSW)    
Max Wind Speed 8 mph    
Max Gust Speed -    
Visibility 8 miles    
Events Thunderstorm    
T = Trace of Precipitation, MM = Missing Value Source: NWS Daily Summary

Daily Weather History Graph

Daily Weather History Graph

Search for Another Location

Airport or City:

Trip Planner

Search our weather history database for the weather conditions in past years. The results will help you decide how hot, cold, wet, or windy it might be!

Date:

Astronomy

Aug. 22, 2014 Rise Set
Actual Time 7:03 AM EDT 8:29 PM EDT
Civil Twilight 6:35 AM EDT 8:57 PM EDT
Nautical Twilight 6:01 AM EDT 9:31 PM EDT
Astronomical Twilight 5:25 AM EDT 10:07 PM EDT
Moon 4:25 AM EDT (8/22) 6:37 PM EDT (8/22)
Length of Visible Light 14h 22m
Length of Day
13h 26m
Waning Crescent, 8% of the Moon is Illuminated
Aug 22
Waning Crescent
Aug 25
New
Sep 2
First Quarter
Sep 8
Full
Sep 15
Last Quarter

Hourly Weather History & Observations

Time (EDT) Temp. Heat Index Dew Point Humidity Pressure Visibility Wind Dir Wind Speed Gust Speed Precip Events Conditions
12:15 AM 75.2 °F - 71.6 °F 89% 30.04 in 7.0 mi ESE 3.5 mph - N/A   Clear
12:35 AM 75.2 °F - 71.6 °F 89% 30.04 in 7.0 mi South 5.8 mph - N/A   Clear
12:55 AM 75.2 °F - 71.6 °F 89% 30.03 in 7.0 mi Calm Calm - N/A   Clear
1:15 AM 75.2 °F - 71.6 °F 89% 30.04 in 7.0 mi ENE 5.8 mph - N/A   Scattered Clouds
1:35 AM 75.2 °F - 71.6 °F 89% 30.03 in 10.0 mi ESE 4.6 mph - N/A   Clear
1:55 AM 75.2 °F - 71.6 °F 89% 30.01 in 7.0 mi SE 4.6 mph - N/A   Clear
2:15 AM 73.4 °F - 71.6 °F 94% 29.99 in 7.0 mi South 4.6 mph - N/A   Clear
2:35 AM 73.4 °F - 71.6 °F 94% 29.98 in 7.0 mi Calm Calm - N/A   Clear
3:15 AM 73.4 °F - 71.6 °F 94% 29.97 in 7.0 mi Calm Calm - N/A   Clear
3:35 AM 73.4 °F - 69.8 °F 88% 29.97 in 7.0 mi Calm Calm - N/A   Clear
3:55 AM 73.4 °F - 71.6 °F 94% 29.98 in 4.0 mi Calm Calm - N/A   Clear
4:15 AM 71.6 °F - 69.8 °F 94% 29.97 in 5.0 mi Calm Calm - N/A   Clear
4:35 AM 71.6 °F - 69.8 °F 94% 29.97 in 4.0 mi ESE 3.5 mph - N/A   Clear
4:55 AM 71.6 °F - 69.8 °F 94% 29.96 in 5.0 mi Calm Calm - N/A   Clear
5:15 AM 71.6 °F - 69.8 °F 94% 29.96 in 4.0 mi Calm Calm - N/A   Clear
5:35 AM 71.6 °F - 69.8 °F 94% 29.96 in 5.0 mi South 3.5 mph - N/A   Clear
5:55 AM 71.6 °F - 69.8 °F 94% 29.96 in 10.0 mi South 3.5 mph - N/A   Clear
6:15 AM 73.4 °F - 71.6 °F 94% 29.96 in 10.0 mi SW 3.5 mph - N/A   Clear
6:35 AM 73.4 °F - 69.8 °F 88% 29.96 in 10.0 mi Calm Calm - N/A   Clear
6:55 AM 73.4 °F - 69.8 °F 88% 29.98 in 10.0 mi WSW 5.8 mph - N/A   Clear
7:15 AM 73.4 °F - 69.8 °F 88% 29.97 in 10.0 mi WSW 5.8 mph - N/A   Clear
7:35 AM 73.4 °F - 69.8 °F 88% 29.98 in 10.0 mi SW 3.5 mph - N/A   Clear
7:55 AM 73.4 °F - 69.8 °F 88% 29.98 in 10.0 mi SW 3.5 mph - N/A   Clear
8:15 AM 73.4 °F - 69.8 °F 88% 29.98 in 10.0 mi Calm Calm - N/A   Clear
8:35 AM 73.4 °F - 69.8 °F 88% 30.01 in 10.0 mi NNE 3.5 mph - N/A   Scattered Clouds
8:55 AM 73.4 °F - 71.6 °F 94% 30.02 in 10.0 mi Calm Calm - N/A   Mostly Cloudy
9:15 AM 75.2 °F - 71.6 °F 89% 30.03 in 10.0 mi North 4.6 mph - N/A   Mostly Cloudy
9:35 AM 77.0 °F - 71.6 °F 83% 30.02 in 10.0 mi Calm Calm - N/A   Scattered Clouds
9:55 AM 77.0 °F - 71.6 °F 83% 30.02 in 10.0 mi Calm Calm - N/A   Mostly Cloudy
10:15 AM 77.0 °F - 71.6 °F 83% 30.02 in 10.0 mi Calm Calm - N/A   Mostly Cloudy
10:35 AM 77.0 °F - 71.6 °F 83% 30.02 in 10.0 mi SW 3.5 mph - N/A   Overcast
10:55 AM 77.0 °F - 71.6 °F 83% 30.02 in 10.0 mi WSW 3.5 mph - N/A   Mostly Cloudy
11:15 AM 78.8 °F - 71.6 °F 78% 30.02 in 10.0 mi Calm Calm - N/A   Scattered Clouds
11:35 AM 78.8 °F - 71.6 °F 78% 30.01 in 10.0 mi WSW 4.6 mph - N/A   Clear
11:55 AM 78.8 °F - 71.6 °F 78% 30.00 in 10.0 mi SW 4.6 mph - N/A   Scattered Clouds
12:15 PM 80.6 °F 84.6 °F 71.6 °F 74% 29.98 in 10.0 mi SW 8.1 mph - N/A   Scattered Clouds
12:35 PM 80.6 °F 84.6 °F 71.6 °F 74% 30.00 in 10.0 mi WSW 3.5 mph - N/A   Clear
12:55 PM 80.6 °F 84.6 °F 71.6 °F 74% 30.01 in 10.0 mi West 4.6 mph - N/A   Scattered Clouds
1:15 PM 80.6 °F 85.4 °F 73.4 °F 79% 30.01 in 10.0 mi West 3.5 mph - N/A   Scattered Clouds
1:35 PM 82.4 °F 88.2 °F 73.4 °F 74% 30.01 in 10.0 mi West 4.6 mph - N/A   Scattered Clouds
1:55 PM 82.4 °F 87.2 °F 71.6 °F 70% 30.01 in 10.0 mi SW 3.5 mph - N/A   Mostly Cloudy
2:15 PM 82.4 °F 88.2 °F 73.4 °F 74% 30.01 in 10.0 mi WSW 5.8 mph - N/A   Mostly Cloudy
2:35 PM 82.4 °F 87.2 °F 71.6 °F 70% 30.00 in 10.0 mi West 4.6 mph - N/A   Mostly Cloudy
2:55 PM 84.2 °F 89.6 °F 71.6 °F 66% 30.00 in 10.0 mi West 4.6 mph - N/A   Mostly Cloudy
3:15 PM 84.2 °F 88.4 °F 69.8 °F 62% 29.99 in 10.0 mi West 4.6 mph - N/A   Scattered Clouds
3:35 PM 86.0 °F 90.4 °F 69.8 °F 58% 29.98 in 10.0 mi WSW 3.5 mph - N/A   Clear
3:55 PM 86.0 °F 90.4 °F 69.8 °F 58% 29.98 in 10.0 mi WNW 5.8 mph - N/A   Clear
4:15 PM 86.0 °F 90.4 °F 69.8 °F 58% 29.98 in 10.0 mi NW 4.6 mph - N/A   Clear
4:35 PM 86.0 °F 90.4 °F 69.8 °F 58% 29.98 in 10.0 mi NW 4.6 mph - N/A   Clear
4:55 PM 86.0 °F 90.4 °F 69.8 °F 58% 29.98 in 10.0 mi NNW 4.6 mph - N/A   Clear
5:15 PM 86.0 °F 90.4 °F 69.8 °F 58% 29.98 in 10.0 mi NNW 3.5 mph - N/A   Clear
5:35 PM 86.0 °F 90.4 °F 69.8 °F 58% 29.97 in 10.0 mi WNW 4.6 mph - N/A   Clear
5:55 PM 86.0 °F 90.4 °F 69.8 °F 58% 29.97 in 10.0 mi Calm Calm - N/A   Clear
6:15 PM 86.0 °F 90.4 °F 69.8 °F 58% 29.97 in 10.0 mi WNW 3.5 mph - N/A   Clear
6:35 PM 86.0 °F 90.4 °F 69.8 °F 58% 29.97 in 10.0 mi West 3.5 mph - N/A   Clear
6:55 PM 86.0 °F 90.4 °F 69.8 °F 58% 29.97 in 10.0 mi WNW 3.5 mph - N/A   Clear
7:15 PM 86.0 °F 90.4 °F 69.8 °F 58% 29.97 in 10.0 mi WNW 4.6 mph - N/A   Clear
7:55 PM 80.6 °F 83.9 °F 69.8 °F 70% 29.97 in 10.0 mi North - - N/A   Clear
8:15 PM 78.8 °F - 71.6 °F 78% 29.97 in 10.0 mi NW 3.5 mph - N/A   Clear
8:35 PM 78.8 °F - 69.8 °F 74% 29.98 in 10.0 mi Calm Calm - N/A   Clear
8:55 PM 75.2 °F - 71.6 °F 89% 29.99 in 10.0 mi Calm Calm - N/A Thunderstorm Clear
9:15 PM 77.0 °F - 71.6 °F 83% 29.99 in 10.0 mi Calm Calm - N/A   Scattered Clouds
9:55 PM 73.4 °F - 71.6 °F 94% 30.01 in 7.0 mi Calm Calm - N/A   Clear
10:15 PM 73.4 °F - 69.8 °F 88% 30.01 in 3.0 mi Calm Calm - N/A   Clear
10:35 PM 71.6 °F - 69.8 °F 94% 30.02 in 2.5 mi Calm Calm - N/A   Clear
10:55 PM 71.6 °F - 69.8 °F 94% 30.02 in 3.0 mi Calm Calm - N/A   Clear
11:15 PM 71.6 °F - 69.8 °F 94% 30.02 in 2.0 mi Calm Calm - N/A   Clear
11:35 PM 71.6 °F - 69.8 °F 94% 30.02 in 3.0 mi Calm Calm - N/A   Clear
11:55 PM 71.6 °F - 69.8 °F 94% 30.01 in 2.5 mi Calm Calm - N/A   Clear